Погода в Оцу

Япония     35°00′54″N   135°51′33″E
темп.,
°C
ветер,
м/с
пор.,
м/с
влажн.,
%
обл.,
%
осадки,
мм/ч
давл.,
гПа
погр.,
м
17 мая, пн
пн1700:00+17в2299100 0.0 1008143
03:00+19ююв21199100 0.6 1006616
06:00+21ююз61497100 2.6 1006795
09:00+21ююз41298100 9.6 1005854
12:00+21юз41197100 3.0 1005746
15:00+22юз3997100 7.3 1005562
18:00+21ююз379997 2.4 1006387
21:00+20ююз2498100 2.6 1008161
18 мая, вт
вт1800:00+19зсз0198100 0.1 100957
03:00+18с1197100 0.1 100999
06:00+18з019540 0.1 1011103
09:00+21юз127884 0.3 1012820
12:00+22ююв127493 0.3 1011683
15:00+21ююз2478100 0.6 1011405
18:00+20ююз1284100 0.1 1011128
21:00+19юз1189100 0.1 101255
19 мая, ср
ср1900:00+19з1292100 0.0 101284
03:00+18ююз1194100 0.1 101240
06:00+18з0197100 0.5 101345
09:00+18сз0097100 1.1 101398
12:00+18ссв1295100 1.8 1013178
15:00+19ссв0186100 2.6 1013427
18:00+19з0189100 0.1 101446
21:00+16ссз22943 0.1 101622
20 мая, чт
чт2000:00+14с228841 0.0 101628
03:00+13с227852 0.0 101624
06:00+14ссв2280100 0.0 101655
09:00+18в2369100 0.0 1017293
12:00+20вюв3576100 0.1 1016632
15:00+17в3996100 3.8 1015621
18:00+17в31097100 9.5 1014596
21:00+17в2499100 16.9 1014209
21 мая, пт
пт2100:00+17в1299100 6.6 101282
03:00+17вюв1299100 9.6 101092
06:00+18вюв1299100 2.8 1010101
09:00+19ююв2597100 3.2 1009267
12:00+19ююв21298100 2.9 1008864
15:00+20ююз51795100 7.8 10071378
18:00+20ююз61795100 6.0 10051379
21:00+20ююз41499100 13.3 10061066